Date String (YYYY-MM-DD hh:mm:ss) UTC,Instrument flags,Ambient pressure (hPa),Sample flow (lpm),Bypass flow (lpm),Sample temperature (°C),Ambient temperature (°C),ASC tube jacket temperature (°C),LED temperature (°C),Box temperature (°C),Sample RH (%),Span deviation,Mass concentration (μg/m³),Mass concentration (μg/m³),Mass concentration (μg/m³)
DateTimeUTC,F1_M11,P_M11,Q1_M11,Q2_M11,T1_M11,T2_M11,T3_M11,T4_M11,T5_M11,U1_M11,ZSPAN_M11,X0_M11,X2_M11,X1_M11
2022-05-03 13:00:00,,0822.4,5.00,0.00,23.6,22.8,00.0,32.5,25.4,22.1,-000.9,0011.12,0008.72,0008.56
2022-05-03 13:01:00,,0822.4,4.99,0.00,23.6,22.8,00.0,32.5,25.4,22.1,-000.7,0011.12,0008.70,0008.52
2022-05-03 13:02:00,,0822.5,5.01,0.00,23.6,22.8,00.0,32.5,25.5,22.1,-000.8,0011.00,0008.66,0008.47
2022-05-03 13:03:00,,0822.4,5.00,0.00,23.6,22.8,00.0,32.5,25.5,22.1,-001.0,0010.87,0008.60,0008.41
2022-05-03 13:04:00,,0822.4,5.00,0.00,23.6,22.8,00.0,32.5,25.5,22.1,-000.8,0010.90,0008.57,0008.38
2022-05-03 13:05:00,,0822.4,5.03,0.00,23.6,22.7,00.0,32.5,25.5,22.1,-000.8,0011.24,0008.52,0008.33
2022-05-03 13:06:00,,0822.5,5.00,0.00,23.6,22.8,00.0,32.5,25.5,22.1,-000.7,0011.18,0008.47,0008.30
2022-05-03 13:07:00,,0822.4,5.01,0.00,23.6,22.8,00.0,32.5,25.5,22.1,-000.4,0011.03,0008.41,0008.25
2022-05-03 13:08:00,,0822.5,4.99,0.00,23.6,22.8,00.0,32.6,25.5,22.1,-000.4,0010.96,0008.38,0008.22
2022-05-03 13:09:00,,0822.4,5.00,0.00,23.7,22.8,00.0,32.6,25.5,22.1,-000.7,0010.88,0008.31,0008.16
2022-05-03 13:10:00,,0822.4,5.01,0.00,23.7,22.8,00.0,32.6,25.5,22.1,-000.8,0010.89,0008.23,0008.08
2022-05-03 13:11:00,,0822.4,5.00,0.00,23.7,22.8,00.0,32.6,25.5,22.2,-000.8,0010.92,0008.20,0008.04
2022-05-03 13:12:00,,0822.4,5.01,0.00,23.7,22.8,00.0,32.6,25.5,22.2,-000.9,0010.88,0008.16,0008.00
2022-05-03 13:13:00,,0822.5,4.99,0.00,23.7,22.8,00.0,32.6,25.5,22.2,-000.8,0010.85,0008.15,0007.99
2022-05-03 13:14:00,,0822.5,5.00,0.00,23.7,22.8,00.0,32.6,25.5,22.2,-000.5,0010.93,0008.23,0008.05
2022-05-03 13:15:00,,0822.5,5.01,0.00,23.7,22.8,00.0,32.6,25.4,22.2,-000.5,0010.96,0008.31,0008.11
2022-05-03 13:16:00,,0822.5,5.00,0.00,23.6,22.8,00.0,32.6,25.4,22.2,-000.3,0010.68,0008.41,0008.19
2022-05-03 13:17:00,,0822.5,4.99,0.00,23.7,22.7,00.0,32.6,25.5,22.2,-000.2,0010.75,0008.52,0008.27
2022-05-03 13:18:00,,0822.6,5.00,0.00,23.6,22.7,00.0,32.6,25.4,22.2,-000.3,0010.94,0008.65,0008.38
2022-05-03 13:19:00,,0822.5,5.02,0.00,23.7,22.7,00.0,32.6,25.4,22.1,-000.5,0011.20,0008.80,0008.47
2022-05-03 13:20:00,,0822.4,4.99,0.00,23.6,22.7,00.0,32.6,25.4,22.1,-000.4,0011.40,0008.94,0008.57
2022-05-03 13:21:00,,0822.5,5.00,0.00,23.6,22.7,00.0,32.6,25.4,22.2,-000.5,0011.51,0009.06,0008.68
2022-05-03 13:22:00,,0822.4,5.02,0.00,23.6,22.7,00.0,32.6,25.5,22.8,-000.5,0011.63,0009.18,0008.76
2022-05-03 13:23:00,,0822.4,4.99,0.00,23.6,22.7,00.0,32.6,25.5,24.5,-000.5,0011.79,0009.31,0008.86
2022-05-03 13:24:00,,0822.5,5.01,0.00,23.6,22.7,00.0,32.6,25.4,23.5,-000.7,0012.21,0009.40,0008.93
2022-05-03 13:25:00,,0822.5,5.00,0.00,23.6,22.7,00.0,32.6,25.4,22.8,-000.5,0012.43,0009.43,0008.95
2022-05-03 13:26:00,,0822.5,5.01,0.00,23.6,22.7,00.0,32.6,25.4,22.6,-000.4,0012.49,0009.48,0008.99
2022-05-03 13:27:00,,0822.5,5.00,0.00,23.6,22.7,00.0,32.6,25.4,22.5,-000.3,0012.51,0009.49,0008.99
2022-05-03 13:28:00,,0822.4,4.99,0.00,23.6,22.7,00.0,32.6,25.4,22.5,-000.1,0012.72,0009.49,0008.98
2022-05-03 13:29:00,,0822.4,5.01,0.00,23.6,22.7,00.0,32.6,25.4,22.5,-000.1,0012.76,0009.49,0008.97
2022-05-03 13:30:00,,0822.5,4.99,0.00,23.6,22.7,00.0,32.6,25.4,22.5,0000.1,0012.77,0009.48,0008.96
2022-05-03 13:31:00,,0822.4,5.00,0.00,23.6,22.7,00.0,32.6,25.4,22.5,0000.2,0012.78,0009.49,0008.95
2022-05-03 13:32:00,,0822.5,5.01,0.00,23.6,22.7,00.0,32.6,25.4,22.5,0000.1,0012.78,0009.48,0008.92
2022-05-03 13:33:00,,0822.5,4.99,0.00,23.6,22.7,00.0,32.5,25.3,22.5,0000.1,0012.76,0009.46,0008.93
2022-05-03 13:34:00,,0822.4,5.00,0.00,23.6,22.7,00.0,32.5,25.3,22.5,0000.1,0012.81,0009.44,0008.89
2022-05-03 13:35:00,,0822.4,5.01,0.00,23.6,22.7,00.0,32.5,25.3,22.4,0000.3,0012.58,0009.44,0008.88
2022-05-03 13:36:00,,0822.5,4.99,0.00,23.6,22.7,00.0,32.5,25.3,22.5,-000.1,0012.33,0009.44,0008.87
2022-05-03 13:37:00,,0822.5,5.01,0.00,23.5,22.7,00.0,32.5,25.3,22.5,-000.1,0012.94,0009.42,0008.86
2022-05-03 13:38:00,,0822.5,5.00,0.00,23.5,22.7,00.0,32.5,25.3,22.5,-000.4,0012.97,0009.40,0008.83
2022-05-03 13:39:00,,0822.5,4.99,0.00,23.5,22.7,00.0,32.5,25.3,22.5,-000.8,0012.65,0009.35,0008.81
2022-05-03 13:40:00,,0822.5,5.01,0.00,23.5,22.7,00.0,32.5,25.2,22.5,-001.0,0012.52,0009.28,0008.77
2022-05-03 13:41:00,,0822.5,5.00,0.00,23.5,22.7,00.0,32.5,25.2,22.5,-000.8,0012.35,0009.22,0008.72
2022-05-03 13:42:00,,0822.5,5.00,0.00,23.5,22.7,00.0,32.5,25.2,22.5,-000.7,0012.25,0009.17,0008.69
2022-05-03 13:43:00,,0822.4,5.00,0.00,23.5,22.6,00.0,32.5,25.2,22.5,-000.7,0012.19,0009.17,0008.70
2022-05-03 13:44:00,,0822.5,5.01,0.00,23.5,22.6,00.0,32.5,25.2,22.5,-000.8,0012.15,0009.16,0008.69
2022-05-03 13:45:00,,0822.5,4.99,0.00,23.5,22.6,00.0,32.5,25.2,22.5,-000.8,0012.04,0009.17,0008.70
2022-05-03 13:46:00,,0822.5,5.01,0.00,23.5,22.6,00.0,32.5,25.2,22.5,-000.8,0012.14,0009.14,0008.69
2022-05-03 13:47:00,,0822.5,4.99,0.00,23.5,22.6,00.0,32.5,25.2,22.6,-000.7,0012.64,0009.14,0008.69
2022-05-03 13:48:00,,0822.5,4.99,0.00,23.5,22.6,00.0,32.5,25.2,22.6,-000.7,0012.31,0009.13,0008.69
2022-05-03 13:49:00,,0822.5,5.01,0.00,23.5,22.6,00.0,32.5,25.2,22.5,-000.5,0012.26,0009.13,0008.69
2022-05-03 13:50:00,,0822.4,4.99,0.00,23.5,22.6,00.0,32.5,25.2,22.6,-000.5,0012.40,0009.14,0008.69
2022-05-03 13:51:00,,0822.5,5.01,0.00,23.5,22.6,00.0,32.4,25.2,22.6,-000.2,0012.73,0009.16,0008.68
2022-05-03 13:52:00,,0822.4,4.99,0.00,23.5,22.6,00.0,32.4,25.2,22.6,-000.6,0012.88,0009.17,0008.70
2022-05-03 13:53:00,,0822.4,5.01,0.00,23.5,22.6,00.0,32.4,25.2,22.5,-000.9,0012.94,0009.19,0008.71
2022-05-03 13:54:00,,0822.4,4.99,0.00,23.4,22.6,00.0,32.4,25.2,22.6,-000.8,0012.88,0009.16,0008.71
2022-05-03 13:55:00,,0822.5,4.99,0.00,23.4,22.6,00.0,32.4,25.2,22.5,-000.6,0012.90,0009.18,0008.72
2022-05-03 13:56:00,,0822.5,5.01,0.00,23.4,22.6,00.0,32.4,25.2,22.5,-000.6,0012.87,0009.18,0008.73
2022-05-03 13:57:00,,0822.5,5.00,0.00,23.4,22.6,00.0,32.4,25.2,22.4,-000.7,0012.63,0009.15,0008.73
2022-05-03 13:58:00,,0822.5,4.99,0.00,23.4,22.6,00.0,32.4,25.2,22.4,-001.0,0012.05,0009.12,0008.73
2022-05-03 13:59:00,,0822.5,4.99,0.00,23.4,22.6,00.0,32.4,25.2,22.5,-001.0,0011.87,0009.12,0008.75
